FW3073 Weather Reports


Display with metric or nautical units.
time (UTC)temp
F
wind
direction
speed
MPH
gust
MPH
rain 1hr
in
rain 24hr
in
rain mn
in
humidity
%
barometer
mb
20260506183004 68 173 6.0 15.0 0.00 0.00 0.00 67 1009.4
20260506182003 66 187 5.0 15.0 0.00 0.00 0.00 70 1009.4
20260506181003 66 195 4.0 13.0 0.00 0.00 0.00 71 1009.4
20260506180004 66 182 5.0 13.0 0.00 0.00 0.00 71 1009.7
20260506175004 66 180 4.0 17.0 0.00 0.00 0.00 70 1009.7
20260506174003 65 194 4.0 14.0 0.00 0.00 0.00 72 1009.7
20260506173003 64 197 4.0 10.0 0.00 0.00 0.00 73 1009.7
20260506172004 64 205 6.0 18.0 0.00 0.00 0.00 74 1009.7
20260506171003 64 177 6.0 18.0 0.00 0.00 0.00 74 1009.7
20260506170003 64 198 5.0 14.0 0.00 0.00 0.00 73 1009.7
20260506165003 65 186 4.0 10.0 0.00 0.00 0.00 72 1009.4
20260506164004 64 189 5.0 18.0 0.00 0.00 0.00 72 1009.4
20260506163003 64 204 4.0 14.0 0.00 0.00 0.00 73 1010.1
20260506162003 63 194 4.0 11.0 0.00 0.00 0.00 74 1009.7
20260506161004 62 190 4.0 15.0 0.00 0.00 0.00 74 1009.7
20260506160004 61 192 4.0 13.0 0.00 0.00 0.00 76 1010.1
20260506155003 61 192 3.0 11.0 0.00 0.00 0.00 76 1010.4
20260506154004 61 181 4.0 11.0 0.00 0.00 0.00 76 1010.4
20260506153004 61 193 4.0 10.0 0.00 0.00 0.00 76 1010.4
20260506152003 60 190 3.0 11.0 0.00 0.00 0.00 77 1010.4
20260506151003 60 199 3.0 9.0 0.00 0.00 0.00 78 1010.4
20260506150004 59 190 3.0 8.0 0.00 0.00 0.00 77 1010.4
20260506145004 59 204 2.0 8.0 0.00 0.00 0.00 79 1010.4
20260506144004 59 187 3.0 10.0 0.00 0.00 0.00 78 1010.4
20260506143004 59 194 3.0 9.0 0.00 0.00 0.00 78 1010.7
20260506142003 59 181 3.0 8.0 0.00 0.00 0.00 77 1010.4
20260506141004 59 195 2.0 9.0 0.00 0.00 0.00 76 1010.4
20260506140003 60 221 3.0 17.0 0.00 0.00 0.00 75 1010.7
20260506135003 60 228 3.0 10.0 0.00 0.00 0.00 74 1010.7
20260506134003 59 205 2.0 7.0 0.00 0.00 0.00 76 1010.7
20260506133004 59 211 2.0 6.0 0.00 0.00 0.00 77 1010.7
20260506132004 58 190 2.0 8.0 0.00 0.00 0.00 77 1010.7
20260506131003 58 194 3.0 8.0 0.00 0.00 0.00 77 1010.7
20260506130004 57 192 2.0 8.0 0.00 0.00 0.00 78 1010.7
20260506125003 56 179 2.0 4.0 0.00 0.00 0.00 79 1010.7
20260506124004 56 189 2.0 8.0 0.00 0.00 0.00 81 1010.7
20260506123004 56 201 2.0 8.0 0.00 0.00 0.00 81 1010.7
20260506122003 56 193 2.0 7.0 0.00 0.00 0.00 81 1011.1
20260506121003 56 205 2.0 8.0 0.00 0.00 0.00 81 1010.7
20260506120004 56 212 2.0 8.0 0.00 0.00 0.00 80 1010.7
20260506115004 56 197 2.0 7.0 0.00 0.00 0.00 81 1010.1
20260506114004 55 185 3.0 11.0 0.00 0.00 0.00 83 1010.1
20260506113003 55 176 2.0 4.0 0.00 0.00 0.00 84 1010.4
20260506112003 54 179 2.0 7.0 0.00 0.00 0.00 85 1010.4
20260506111003 54 193 2.0 6.0 0.00 0.00 0.00 86 1010.1
20260506110004 53 181 1.0 6.0 0.00 0.00 0.00 88 1010.1
20260506105003 53 183 2.0 8.0 0.00 0.00 0.00 87 1009.7
20260506104004 54 186 3.0 10.0 0.00 0.00 0.00 85 1009.7
20260506103003 54 202 2.0 9.0 0.00 0.00 0.00 84 1010.1
20260506102003 54 195 3.0 13.0 0.00 0.00 0.00 84 1010.1
20260506101004 54 199 2.0 7.0 0.00 0.00 0.00 84 1010.1
20260506100004 54 231 1.0 7.0 0.00 0.00 0.00 84 1009.4
20260506095003 54 188 1.0 4.0 0.00 0.00 0.00 84 1009.4
20260506094003 54 174 0.0 3.0 0.00 0.00 0.00 85 1008.7
20260506093004 53 173 1.0 3.0 0.00 0.00 0.00 85 1008.7
20260506092003 53 194 1.0 3.0 0.00 0.00 0.00 85 1008.7
20260506091003 53 191 1.0 3.0 0.00 0.00 0.00 86 1008.7
20260506090004 53 180 1.0 6.0 0.00 0.00 0.00 86 1008.4
20260506085003 52 175 1.0 4.0 0.00 0.00 0.00 87 1008.4
20260506084003 52 230 1.0 3.0 0.00 0.00 0.00 86 1008.7
20260506083004 52 190 1.0 3.0 0.00 0.00 0.00 87 1008.7
20260506082003 51 180 0.0 1.0 0.00 0.00 0.00 87 1008.7
20260506081003 52 198 0.0 1.0 0.00 0.00 0.00 86 1008.4
20260506073004 52 284 0.0 2.0 0.00 0.00 0.00 84 1008.4
20260506072004 53 185 1.0 4.0 0.00 0.00 0.00 83 1008.4
20260506071004 53 184 1.0 7.0 0.00 0.00 0.00 82 1008.4
20260506062003 53 184 2.0 10.0 0.00 0.00 0.00 79 1008.4
20260506061004 53 180 1.0 4.0 0.00 0.00 0.00 79 1008.4
20260506051003 53 180 2.0 8.0 0.00 0.00 0.00 77 1007.7
20260506045003 53 183 2.0 6.0 0.00 0.00 0.00 76 1007.3
20260506044004 54 171 2.0 4.0 0.00 0.00 0.00 75 1007.3
20260506043004 54 165 2.0 4.0 0.00 0.00 0.00 74 1007.3
20260506042003 54 168 2.0 7.0 0.00 0.00 0.00 73 1007.3
20260506041004 54 177 2.0 9.0 0.00 0.00 0.00 73 1007.3
20260506040004 55 198 3.0 10.0 0.00 0.00 0.00 72 1007.3
20260506035003 55 192 3.0 10.0 0.00 0.00 0.00 71 1007.7
20260506034003 56 199 4.0 15.0 0.00 0.00 0.00 70 1007.7
20260506033004 56 190 3.0 14.0 0.00 0.00 0.00 69 1007.7
20260506032004 56 202 3.0 7.0 0.00 0.00 0.00 68 1007.3
20260506031003 57 200 3.0 13.0 0.00 0.00 0.00 67 1007.7
20260506030003 57 203 3.0 11.0 0.00 0.00 0.00 66 1007.7
20260506025003 58 188 4.0 15.0 0.00 0.00 0.00 65 1007.3
20260506024004 58 178 4.0 13.0 0.00 0.00 0.00 63 1007.0
20260506023003 58 189 5.0 11.0 0.00 0.00 0.00 62 1007.0
20260506022003 58 210 4.0 16.0 0.00 0.00 0.00 62 1007.3
20260506021003 59 199 4.0 14.0 0.00 0.00 0.00 61 1007.0
20260506020004 60 207 4.0 17.0 0.00 0.00 0.00 59 1007.3
20260506015003 61 244 4.0 14.0 0.00 0.00 0.00 57 1008.0
20260506014003 61 196 3.0 10.0 0.00 0.00 0.00 56 1007.0
20260506013004 62 208 4.0 18.0 0.00 0.00 0.00 55 1007.0
20260506012003 62 215 3.0 13.0 0.00 0.00 0.00 54 1006.6
20260506011004 63 220 5.0 15.0 0.00 0.00 0.00 54 1006.0
20260506010004 63 186 3.0 11.0 0.00 0.00 0.00 54 1005.6
20260506005003 63 196 4.0 11.0 0.00 0.00 0.00 54 1005.6
20260506004003 63 180 4.0 11.0 0.00 0.00 0.00 54 1006.0
20260506003004 63 204 4.0 14.0 0.00 0.00 0.00 53 1006.3
20260506002003 64 196 5.0 17.0 0.00 0.00 0.00 53 1006.0
20260506001004 64 195 4.0 14.0 0.00 0.00 0.00 54 1006.0
20260506000003 64 193 4.0 11.0 0.00 0.00 0.00 54 1005.6
20260505235003 64 198 5.0 16.0 0.00 0.00 0.00 53 1005.6
20260505234003 65 191 5.0 16.0 0.00 0.00 0.00 52 1005.3
20260505233003 65 194 4.0 9.0 0.00 0.00 0.00 51 1005.3
20260505232003 66 174 5.0 15.0 0.00 0.00 0.00 50 1004.9
20260505231004 66 186 5.0 14.0 0.00 0.00 0.00 49 1004.6
20260505230003 67 183 4.0 11.0 0.00 0.00 0.00 48 1004.3
20260505225003 67 182 5.0 19.0 0.00 0.00 0.00 46 1004.3
20260505224003 68 191 5.0 18.0 0.00 0.00 0.00 45 1003.9
20260505223003 69 193 6.0 15.0 0.00 0.00 0.00 43 1004.3
20260505222004 69 181 5.0 11.0 0.00 0.00 0.00 42 1003.9
20260505221003 70 176 5.0 15.0 0.00 0.00 0.00 41 1003.9
20260505220004 71 176 5.0 15.0 0.00 0.00 0.00 40 1003.9
20260505215003 71 168 5.0 11.0 0.00 0.00 0.00 40 1003.6
20260505214003 71 192 4.0 14.0 0.00 0.00 0.00 39 1003.6
20260505213003 72 186 4.0 13.0 0.00 0.00 0.00 38 1003.6
20260505212003 72 178 5.0 18.0 0.00 0.00 0.00 38 1003.6
20260505211003 72 193 5.0 17.0 0.00 0.00 0.00 38 1003.9
20260505210004 72 182 4.0 14.0 0.00 0.00 0.00 37 1003.9
20260505205003 72 192 5.0 17.0 0.00 0.00 0.00 38 1003.9
20260505204003 73 173 5.0 17.0 0.00 0.00 0.00 37 1003.6
20260505203003 73 200 7.0 15.0 0.00 0.00 0.00 37 1003.9
20260505202004 73 198 7.0 18.0 0.00 0.00 0.00 36 1003.9
20260505201003 74 183 6.0 15.0 0.00 0.00 0.00 35 1003.6
20260505200003 73 206 6.0 16.0 0.00 0.00 0.00 35 1003.9
20260505195004 74 196 5.0 17.0 0.00 0.00 0.00 35 1003.9
20260505194003 74 197 6.0 16.0 0.00 0.00 0.00 35 1004.6
20260505193004 74 192 6.0 16.0 0.00 0.00 0.00 33 1004.3
20260505192003 74 190 6.0 18.0 0.00 0.00 0.00 33 1004.6
20260505191003 74 174 5.0 15.0 0.00 0.00 0.00 32 1004.6
20260505190004 74 198 6.0 16.0 0.00 0.00 0.00 31 1004.6
20260505185003 74 187 6.0 18.0 0.00 0.00 0.00 31 1005.3
20260505184003 74 181 5.0 21.0 0.00 0.00 0.00 30 1005.3